Wind_Speed
54 54 53 53 54 54 55 55 54 54 54 54 54 53 54 53 53 53 52 52 51 50 48 48 47 47 46 45 45 44 44 43 42 41 40 40 40 39
55 55 55 54 54 54 55 55 55 55 55 55 56 56 55 55 54 54 54 54 53 52 50 50 49 49 49 48 48 47 46 46 45 44 43 43 43 42
56 56 55 55 55 55 56 56 56 56 56 55 56 57 57 57 56 56 55 55 54 53 52 51 52 51 50 50 49 48 48 47 46 46 45 44 44 44
56 57 56 55 55 56 57 57 57 56 56 56 56 57 58 58 59 58 58 58 57 55 54 53 52 52 51 51 49 49 48 48 47 47 46 45 45 45
57 57 57 56 56 56 57 58 58 57 57 57 57 57 59 60 60 60 60 59 59 58 55 54 53 51 51 51 51 50 49 49 49 48 49 48 47 46
57 57 57 57 57 56 57 58 58 58 57 58 57 57 58 59 60 61 61 61 60 59 57 55 54 52 52 52 52 52 51 51 50 50 50 49 49 48
56 56 56 56 56 56 57 58 58 58 58 59 58 57 57 57 58 59 61 60 60 59 58 56 55 54 53 52 53 54 53 52 52 51 51 51 51 50
55 55 56 56 56 56 56 57 58 59 58 59 58 57 56 57 58 58 58 58 57 57 57 56 56 55 53 53 54 54 54 53 53 53 53 53 54 53
56 55 55 55 55 56 55 55 56 57 58 59 58 57 56 56 56 56 57 57 56 56 56 56 56 55 53 53 54 54 54 54 54 54 54 54 54 54
56 55 54 54 55 55 56 55 56 56 56 57 57 56 55 54 55 56 57 58 57 56 57 57 56 56 55 54 55 55 55 55 55 55 55 55 55 56
54 54 54 54 55 55 56 55 55 55 55 55 54 54 55 55 56 57 58 58 58 57 57 57 57 56 56 56 56 57 58 57 56 57 57 57 57 58
53 53 53 53 53 54 56 56 55 54 54 54 53 53 54 55 56 57 58 58 58 58 58 58 58 58 57 57 58 58 59 59 59 59 58 58 58 59
53 53 53 53 53 54 55 56 55 55 54 54 55 55 55 55 56 57 57 57 57 57 59 60 59 59 60 59 59 59 59 59 60 60 59 59 59 60
51 51 52 52 53 53 54 55 55 54 53 53 54 54 54 54 55 56 57 56 56 57 59 61 60 60 59 59 59 59 59 59 60 60 60 59 59 59
48 49 49 50 51 52 52 53 53 52 52 52 53 53 53 53 54 55 56 56 57 57 58 60 61 60 59 59 58 58 58 59 60 60 60 59 58 58
47 47 48 49 50 51 50 50 50 50 50 51 51 51 52 54 55 56 57 57 56 57 58 58 59 60 59 58 58 58 58 58 58 59 58 58 58 58
45 45 45 46 48 49 50 50 50 49 49 50 50 50 51 53 54 55 56 57 56 55 56 56 56 58 59 59 59 59 58 57 56 56 56 56 56 56
44 44 44 44 46 48 49 49 49 49 49 49 48 48 50 51 52 52 52 53 54 54 53 54 55 57 58 58 58 58 57 56 55 55 55 55 55 55
41 41 42 43 43 45 46 46 46 47 47 47 47 47 49 50 51 51 52 52 53 53 52 53 54 55 57 56 55 55 54 54 53 52 52 52 52 53
39 39 40 40 41 41 42 43 44 45 44 44 45 46 47 49 50 51 52 52 52 51 50 50 51 52 52 52 52 52 52 51 51 50 50 51 51 51
37 37 38 38 38 39 39 41 42 42 43 43 43 45 46 48 49 49 49 49 49 49 48 47 47 48 48 48 49 48 49 49 49 49 49 49 49 49
35 35 35 35 36 37 38 39 40 41 41 41 42 43 44 45 47 47 47 47 46 45 45 44 45 45 45 46 46 45 45 46 48 48 48 48 48 47
31 31 31 32 33 34 35 36 37 37 38 38 38 40 41 42 42 43 43 43 43 42 42 42 42 43 43 44 44 43 43 44 45 46 46 46 46 45
Wind_Direction
259 259 258 258 257 256 255 255 254 253 252 251 251 252 252 251 250 249 249 250 251 253 253 254 254 255 256 258 259 260 261 263 264 264 265 266 267 268
259 258 258 258 258 258 256 256 255 254 253 252 252 252 251 250 250 249 249 250 251 253 253 253 255 256 256 258 258 260 261 263 264 264 266 266 267 268
258 257 257 258 258 258 257 257 256 256 255 253 253 253 252 250 249 249 249 250 251 253 253 254 255 255 256 257 258 259 260 261 263 264 266 267 267 268
256 256 257 257 257 257 257 257 257 257 256 254 253 253 253 252 250 249 249 250 251 252 253 253 253 254 255 256 256 257 259 260 262 263 264 266 267 268
257 257 257 257 257 257 257 257 257 257 257 255 254 254 253 252 251 250 249 250 251 251 252 252 252 253 255 255 255 256 257 259 261 263 264 265 266 267
256 256 256 257 258 257 257 257 257 257 257 256 255 255 254 252 251 250 249 249 249 250 250 251 250 251 253 254 255 256 257 258 261 262 263 264 265 266
257 256 256 257 257 257 257 257 256 256 256 255 255 254 253 252 251 250 249 249 248 248 249 249 250 251 252 254 256 257 257 259 260 261 262 263 264 265
257 257 256 256 256 257 257 256 256 256 256 255 254 253 253 252 251 249 248 247 247 246 247 248 250 251 253 256 256 257 258 260 261 261 262 263 264 265
257 256 256 256 256 256 256 256 256 255 255 254 253 253 253 252 250 248 247 246 246 246 246 247 249 252 253 255 256 257 258 258 260 261 263 264 264 264
257 256 256 255 256 256 256 256 256 256 255 254 253 252 250 249 248 247 247 246 246 247 247 248 249 251 252 254 255 256 258 259 260 262 263 264 264 265
257 257 257 256 256 256 257 257 256 256 255 253 252 251 249 248 247 247 247 247 247 247 248 249 250 252 252 253 254 257 259 261 261 263 264 264 265 265
258 258 257 257 256 256 257 257 256 255 254 253 252 250 250 249 249 248 247 248 249 248 249 250 251 252 253 254 255 258 260 261 262 263 263 264 265 266
259 258 258 257 256 256 256 257 257 255 255 253 252 251 250 250 249 249 247 248 250 250 250 251 252 254 255 255 256 258 260 261 262 263 264 265 266 266
261 259 258 257 257 257 256 256 256 255 253 252 251 250 249 249 249 248 247 249 250 251 252 253 254 256 257 257 258 258 260 261 263 263 264 265 266 266
261 260 259 259 259 258 257 255 255 255 253 251 249 248 248 249 249 247 248 249 250 252 253 254 255 256 257 258 258 260 262 263 263 264 265 266 266 266
261 260 259 259 259 257 256 254 254 253 252 251 249 247 247 248 248 249 250 250 251 252 253 255 256 256 257 259 259 260 262 264 263 264 265 265 266 267
261 261 260 259 257 256 254 254 254 253 253 251 249 248 248 249 248 249 250 250 252 253 253 254 255 256 258 259 260 261 262 263 264 264 264 265 266 267
263 263 261 259 257 256 254 254 253 254 253 252 249 248 249 249 248 249 252 253 253 253 254 255 255 256 258 259 260 262 262 263 263 263 264 266 266 266
264 262 260 259 258 256 254 253 252 252 251 251 250 249 249 249 248 249 251 252 252 254 255 255 256 257 259 260 259 260 261 262 263 263 264 266 267 267
264 262 260 259 258 256 253 251 251 250 251 251 249 249 249 250 250 250 251 251 252 253 254 255 256 257 258 259 259 259 260 261 262 263 264 265 266 267
263 262 260 258 257 255 253 251 251 250 251 251 249 249 250 251 251 251 251 252 252 253 253 254 255 256 257 259 259 258 259 260 261 263 265 265 265 266
263 261 259 258 257 256 254 251 251 251 251 253 252 252 252 252 253 253 252 252 252 252 253 254 254 255 257 258 259 258 258 259 260 262 264 265 266 266
263 261 259 259 258 256 253 251 251 252 253 254 255 254 254 253 253 253 252 252 251 251 252 253 254 254 255 257 258 258 259 261 261 262 263 265 266 267
Height
5642 5644 5646 5649 5651 5653 5656 5659 5663 5667 5673 5676 5679 5683 5686 5690 5695 5699 5703 5707 5711 5714 5718 5721 5724 5727 5730 5732 5735 5737 5739 5740 5742 5743 5744 5744 5745 5746
5627 5629 5631 5634 5636 5638 5641 5644 5647 5651 5657 5662 5664 5668 5671 5675 5680 5684 5689 5693 5697 5701 5705 5708 5711 5714 5717 5720 5722 5724 5726 5728 5729 5731 5732 5733 5734 5735
5611 5614 5617 5619 5621 5624 5626 5629 5632 5635 5640 5646 5649 5652 5656 5660 5664 5669 5674 5678 5683 5687 5691 5694 5697 5700 5703 5706 5709 5711 5713 5715 5716 5718 5719 5720 5721 5723
5595 5598 5601 5603 5606 5609 5611 5614 5617 5620 5624 5629 5633 5636 5640 5644 5648 5653 5658 5663 5668 5672 5676 5680 5683 5686 5689 5692 5695 5697 5700 5702 5704 5705 5707 5708 5709 5710
5579 5582 5585 5588 5590 5593 5595 5598 5601 5604 5608 5612 5617 5620 5624 5628 5632 5637 5642 5647 5652 5657 5661 5665 5669 5672 5675 5678 5681 5684 5686 5689 5690 5692 5693 5695 5696 5697
5563 5566 5569 5572 5575 5577 5579 5582 5585 5588 5591 5595 5599 5603 5607 5611 5614 5620 5626 5631 5637 5641 5645 5650 5654 5657 5661 5664 5667 5670 5672 5674 5676 5678 5679 5681 5682 5683
5546 5550 5553 5556 5559 5561 5564 5566 5569 5572 5575 5578 5582 5586 5591 5594 5599 5604 5609 5615 5620 5625 5630 5635 5640 5643 5646 5649 5652 5654 5657 5659 5661 5663 5665 5666 5668 5669
5530 5534 5537 5540 5543 5545 5547 5550 5553 5555 5559 5562 5566 5570 5575 5579 5583 5587 5592 5598 5605 5612 5614 5620 5624 5628 5631 5634 5637 5640 5642 5644 5646 5648 5649 5651 5652 5654
5514 5517 5520 5524 5526 5529 5531 5534 5537 5539 5542 5546 5550 5554 5559 5563 5567 5573 5577 5582 5589 5594 5598 5604 5609 5613 5617 5619 5622 5625 5627 5629 5630 5632 5634 5635 5637 5638
5498 5501 5504 5508 5510 5513 5515 5518 5521 5524 5527 5530 5534 5539 5542 5546 5550 5556 5561 5567 5573 5579 5583 5588 5593 5598 5601 5604 5607 5609 5611 5613 5615 5617 5618 5620 5621 5622
5483 5485 5488 5492 5495 5497 5499 5503 5506 5509 5511 5514 5518 5522 5526 5531 5535 5540 5545 5551 5558 5564 5568 5572 5577 5581 5585 5589 5591 5593 5595 5597 5599 5600 5602 5603 5604 5605
5468 5471 5474 5476 5478 5480 5483 5486 5490 5493 5496 5499 5503 5507 5511 5515 5520 5525 5530 5535 5541 5547 5553 5556 5560 5563 5568 5573 5575 5577 5579 5581 5582 5584 5585 5586 5587 5588
5453 5455 5458 5460 5462 5465 5467 5470 5474 5477 5480 5484 5488 5492 5496 5500 5505 5510 5515 5520 5525 5531 5536 5540 5543 5547 5550 5555 5559 5561 5562 5564 5566 5567 5568 5569 5569 5570
5437 5440 5442 5445 5447 5449 5452 5454 5457 5460 5464 5468 5472 5477 5481 5486 5490 5495 5500 5505 5510 5515 5519 5523 5527 5530 5534 5537 5542 5544 5546 5547 5548 5550 5551 5551 5552 5553
5422 5425 5427 5429 5431 5433 5436 5439 5441 5444 5448 5452 5456 5461 5466 5471 5476 5480 5485 5490 5494 5498 5502 5506 5510 5513 5517 5520 5524 5527 5529 5530 5531 5532 5533 5534 5535 5536
5407 5410 5412 5414 5416 5418 5421 5423 5426 5430 5433 5437 5442 5446 5451 5455 5460 5465 5469 5474 5478 5483 5486 5490 5493 5497 5500 5503 5506 5509 5511 5512 5514 5515 5515 5517 5518 5518
5393 5395 5397 5399 5401 5404 5406 5409 5412 5415 5419 5423 5427 5431 5436 5440 5445 5450 5454 5458 5462 5467 5471 5474 5476 5479 5482 5485 5488 5491 5493 5495 5496 5497 5498 5500 5501 5502
5379 5381 5383 5385 5387 5389 5392 5395 5398 5402 5405 5409 5413 5417 5421 5426 5430 5434 5438 5442 5447 5451 5454 5458 5460 5463 5466 5469 5471 5473 5475 5477 5479 5480 5481 5483 5485 5486
5366 5368 5369 5371 5373 5376 5378 5381 5384 5388 5392 5395 5399 5403 5407 5411 5416 5420 5423 5427 5431 5435 5439 5442 5444 5446 5450 5454 5456 5457 5459 5461 5463 5465 5466 5467 5469 5470
5354 5355 5357 5358 5360 5363 5365 5368 5371 5375 5378 5382 5386 5390 5394 5397 5401 5405 5409 5412 5416 5420 5423 5426 5429 5431 5434 5438 5440 5443 5443 5445 5447 5449 5451 5451 5452 5453
5342 5343 5345 5347 5349 5351 5353 5356 5359 5363 5366 5370 5373 5377 5380 5384 5388 5391 5394 5398 5401 5405 5409 5412 5415 5417 5419 5421 5424 5427 5429 5430 5431 5433 5435 5436 5437 5438
5332 5333 5334 5335 5338 5340 5342 5345 5348 5351 5354 5358 5361 5364 5367 5371 5374 5377 5380 5384 5387 5391 5395 5398 5400 5402 5404 5407 5409 5412 5414 5416 5416 5418 5419 5421 5422 5424
5322 5323 5324 5326 5327 5329 5332 5334 5337 5340 5343 5346 5349 5352 5355 5358 5361 5364 5367 5370 5374 5378 5381 5384 5386 5388 5391 5393 5395 5398 5400 5402 5403 5404 5406 5406 5408 5409